Location: St Paul
(33.4390°N, 83.7350°W)
Time: 20:33:45
(UTC-04:00)

Cosmos 923 Rocket - Pass Details

Date: 06 October 2017
Orbit: 758 x 786 km, 74.0° (Epoch: 22 October)

Event Time Altitude Azimuth Distance (km) Brightness Sun altitude
Rises 19:43:45 0° 179° (S) 3,241 7.3 -7.4°
Reaches altitude 10° 19:46:12 10° 173° (S) 2,321 6.5 -7.9°
Maximum altitude 19:51:12 45° 102° (ESE) 1,057 4.3 -8.9°
Drops below altitude 10° 19:56:16 10° 31° (NNE) 2,347 6.2 -10.0°
Sets 19:58:44 0° 25° (NNE) 3,280 7.0 -10.5°
